Flag for Pakistan Weather past 2 weeks in Karachi, Sindh, Pakistan

Now
68 °F

Clear.


Feels Like: 68 °F
Forecast: 59 / 78 °F
Wind: 5 mph from Southwest

Location: Karachi Airport

Current Time: Jan 29, 2015 at 8:18:57 PM

Latest Report: Jan 29, 2015 at 7:55 PM


Visibility: 4 mi

Pressure: 30.09 "Hg

Humidity: 64%

Dew point: 55 °F

Location of KarachiLocation

Historic Weather in Karachi — Graph

°F

Karachi temperature yesterday

Maximum temperature yesterday: 73 °F (at 3:55 PM)
Minimum temperature yesterday: 52 °F (at 7:55 AM)
Average temperature yesterday: 63 °F

Past Weeks' High & Low Weather Summary

 TemperatureHumidityPressure
High79 °F (Jan 18, 2:25 PM)88% (Jan 21, 1:55 AM)30.21 "Hg (Jan 21, 1:55 AM)
Low48 °F (Jan 18, 7:25 AM)10% (Jan 27, 2:25 PM)29.56 "Hg (Jan 22, 2:30 AM)
Average65 °F43%30.08 "Hg
* Reported Jan 14 7:00 PM — Jan 29 6:55 PM, Karachi, Weather by CustomWeather, © 2014

Note: Actual official high and low records may vary slightly from our data, if they occured in-between our weather recording intervals... More about our weather records

Advertising

Karachi weather history for previous 24 hours

 ConditionsComfort  
Time TempWeatherWind HumidityBarometerVisibility
6:55 PM
Jan 29
70 °FClear.8 mph60%30.07 "Hg4 mi
6:25 PM72 °FClear.12 mph57%30.07 "Hg4 mi
5:55 PM73 °FClear.12 mph53%30.04 "Hg4 mi
5:25 PM73 °FClear.10 mph53%30.04 "Hg4 mi
4:55 PM75 °FClear.13 mph47%30.04 "Hg4 mi
4:25 PM75 °FClear.15 mph44%30.04 "Hg4 mi
3:55 PM77 °FClear.9 mph42%30.04 "Hg4 mi
3:25 PM77 °FClear.10 mph39%30.04 "Hg4 mi
2:55 PM79 °FClear.12 mph32%30.04 "Hg4 mi
2:25 PM79 °FClear.1 mph30%30.04 "Hg4 mi
1:55 PM77 °FClear.7 mph34%30.07 "Hg4 mi
1:25 PM75 °FHaze.5 mph34%30.07 "Hg3 mi
12:55 PM75 °FHaze.3 mph34%30.09 "Hg3 mi
12:25 PM75 °FClear.7 mph34%30.12 "Hg4 mi
11:55 AM73 °FClear.5 mph36%30.12 "Hg4 mi
11:25 AM72 °FClear.5 mph38%30.12 "Hg4 mi
10:25 AM68 °FClear.No wind30%30.15 "Hg3 mi
10:00 AM66 °FClear.3 mph26%30.12 "Hg3 mi
9:25 AM61 °FHaze.3 mph31%30.12 "Hg2 mi
8:55 AM57 °FHaze.3 mph39%30.12 "Hg2 mi
8:25 AM52 °FHaze.3 mph44%30.12 "Hg2 mi
7:55 AM50 °FHaze.5 mph47%30.09 "Hg2 mi
7:25 AM50 °FHaze.3 mph47%30.07 "Hg2 mi
6:55 AM50 °FHaze.3 mph47%30.07 "Hg3 mi
6:25 AM50 °FHaze.5 mph47%30.07 "Hg3 mi
5:55 AM50 °FClear.6 mph47%30.04 "Hg4 mi
4:55 AM50 °FClear.3 mph47%30.04 "Hg4 mi
4:25 AM50 °FClear.3 mph47%30.04 "Hg4 mi
3:55 AM52 °FClear.3 mph44%30.04 "Hg4 mi
3:25 AM52 °FClear.5 mph44%30.07 "Hg4 mi
2:55 AM52 °FClear.3 mph44%30.07 "Hg4 mi
2:25 AM54 °FClear.5 mph41%30.07 "Hg4 mi
1:55 AM54 °FClear.3 mph41%30.07 "Hg4 mi
1:25 AM54 °FClear.5 mph41%30.07 "Hg4 mi
12:55 AM57 °FClear.5 mph33%30.07 "Hg4 mi
12:25 AM55 °FClear.5 mph36%30.07 "Hg4 mi
11:55 PM
Jan 28
55 °FClear.3 mph36%30.09 "Hg4 mi
11:25 PM57 °FClear.3 mph33%30.09 "Hg4 mi
10:55 PM59 °FClear.3 mph31%30.09 "Hg4 mi
10:25 PM59 °FClear.3 mph29%30.09 "Hg4 mi
9:55 PM63 °FClear.No wind30%30.09 "Hg4 mi
9:25 PM63 °FClear.No wind27%30.09 "Hg4 mi
8:55 PM63 °FClear.No wind27%30.09 "Hg4 mi
8:25 PM63 °FClear.No wind24%30.07 "Hg4 mi
Weather by CustomWeather, © 2014

See weather overviewHow to use our weather pages